STARLINK-3912, 52502

Orbit data source: Space-Track

STARLINK-3912, 52502 is a payload satellite owned by SpaceX/Seattle (US) in LEO that was launched on Fri, 06 May 2022 UTC via an FALCON 9 launch vehicle from the Air Force Eastern Test Range (AFETR). Payload-class satellites include a variety of spacecraft equipped with specific instruments for various scientific and technological missions. These include communications satellites like Starlink; space stations such as the ISS; scientific satellites like the Hubble; Earth observation satellites from companies like Planet Labs, Umbra, and HawkEye 360; GPS; miniature CubeSats for education and research; and military/defense satellites.

Loading next visibility...
Identifier
52502, 2022-049BD
Orbit
LEO
Country
Flag of USUS
Related business
Manufacturer
SpaceX/Seattle
Mission
Operational Commercial Communications
Bus & Motor
STARLINK, Unknown motor
Mass
297 kg wet, ~220 kg dry
Launch date (UTC)
2022-05-06 (4 years ago)
Launch vehicle
FALCON 9
Launch site
Air Force Eastern Test Range (AFETR)
Object type
Payload
Rocket body
Debris
Shape & HBR
Box + 1 Pan, 10.1 m
Radar Cross Section
13.562 m², Large (>1 m²)

Expand to show TLE details & history
Last TLE update: 10 hours ago

TLE from 10 hours ago
0 STARLINK-3912
1 52502U 22049BD  26236.00002315  .00054038  00000-0  17295-2 0  9997
2 52502  53.1608   6.1093 0001523  83.6769  85.2542 15.31903759  5811
Epoch: 2026-08-24T00:00Z
TLE epoch observation values (Epoch: 2026-08-24T00:00:02.000Z)
Latitude
8.79978°
Longitude
-152.80981°
Altitude
470.232 km
Speed
7.633 km/s
True Right ascension
11h 57m 56s
True Declination
8° 44' 45"
Sunlit
Object was in daylight at epoch
Visualization orbit readout
Latitude
Unknown
Longitude
Unknown
Altitude
Unknown
Speed
Unknown
Apparent Right ascension
Unknown
Apparent Declination
Unknown
Sunlit
N/A
Visualization observer readout
Local Sidereal Time
00:47:23
Azimuth
Unknown
Elevation
Unknown
Doppler factor
Unknown
Orbital elements
Apogee altitude
471.432 km
Perigee altitude
469.346 km
Semi-major axis
6,848.526 km
Eccentricity
0.00015
Inclination
53.1608°
RAAN
6.1093°
Arg. of periapsis
83.6769°
True anomaly
85.27159°
Mean anomaly
85.2542°
Eccentric anomaly
85.2629°
Mean motion
3.82955 °/min
Orbital period
94.01 mins
BSTAR
0.0017295
Loading maneuver chart data...
Computing Atmospheric mass density...
Loading historical data...
Loading historical data...
Loading historical data...
Loading historical data...
Loading historical data...
Loading historical data...
Loading historical data...

Documentation

Showing up to 5 results
|